| time (UTC) | temp F | wind direction | speed MPH | gust MPH | rain 1hr in | rain 24hr in | rain mn in | humidity % | barometer mb |
| 20260905230325 | 88 | 253 | 2.0 | 3.0 | 0.00 | 0.08 | 0.00 | 71 | 1012.7 |
| 20260905230105 | 87 | 246 | 0.0 | 4.0 | 0.00 | 0.08 | 0.00 | 72 | 1011.8 |
| 20260905225554 | 88 | 242 | 0.0 | 4.0 | 0.00 | 0.08 | 0.00 | 71 | 1011.9 |
| 20260905225051 | 88 | 250 | 0.0 | 3.0 | 0.00 | 0.08 | 0.00 | 70 | 1011.9 |
| 20260905224818 | 88 | 250 | 1.0 | 3.0 | 0.00 | 0.08 | 0.00 | 69 | 1012.8 |
| 20260905224610 | 88 | 232 | 0.0 | 3.0 | 0.00 | 0.08 | 0.00 | 69 | 1011.9 |
| 20260905224042 | 88 | 246 | 0.0 | 2.0 | 0.00 | 0.08 | 0.00 | 69 | 1011.9 |
| 20260905223537 | 89 | 292 | 0.0 | 4.0 | 0.00 | 0.08 | 0.00 | 69 | 1011.9 |
| 20260905223330 | 89 | 238 | 0.0 | 4.0 | 0.00 | 0.08 | 0.00 | 68 | 1012.8 |
| 20260905223043 | 89 | 232 | 2.0 | 4.0 | 0.00 | 0.08 | 0.00 | 67 | 1011.9 |
| 20260905222534 | 89 | 208 | 0.0 | 4.0 | 0.00 | 0.08 | 0.00 | 68 | 1011.9 |
| 20260905222028 | 89 | 185 | 1.0 | 4.0 | 0.00 | 0.08 | 0.00 | 67 | 1012.1 |
| 20260905221820 | 90 | 213 | 1.0 | 4.0 | 0.00 | 0.08 | 0.00 | 66 | 1013.0 |
| 20260905221525 | 89 | 196 | 0.0 | 4.0 | 0.00 | 0.08 | 0.00 | 66 | 1012.1 |
| 20260905221021 | 89 | 202 | 1.0 | 5.0 | 0.00 | 0.08 | 0.00 | 66 | 1012.0 |
| 20260905220517 | 89 | 190 | 2.0 | 5.0 | 0.00 | 0.08 | 0.00 | 65 | 1011.9 |
| 20260905220314 | 90 | 207 | 1.0 | 4.0 | 0.00 | 0.08 | 0.00 | 65 | 1012.9 |
| 20260905220013 | 90 | 163 | 1.0 | 4.0 | 0.00 | 0.08 | 0.00 | 66 | 1011.9 |
| 20260905215509 | 90 | 230 | 0.0 | 3.0 | 0.00 | 0.08 | 0.00 | 66 | 1012.0 |
| 20260905215009 | 90 | 155 | 1.0 | 3.0 | 0.00 | 0.08 | 0.00 | 66 | 1012.1 |
| 20260905214822 | 90 | 213 | 1.0 | 3.0 | 0.00 | 0.08 | 0.00 | 66 | 1012.9 |
| 20260905214503 | 90 | 239 | 0.0 | 5.0 | 0.00 | 0.08 | 0.00 | 65 | 1012.0 |
| 20260905214059 | 90 | 200 | 2.0 | 5.0 | 0.00 | 0.08 | 0.00 | 65 | 1012.0 |
| 20260905214001 | 90 | 192 | 2.0 | 5.0 | 0.00 | 0.08 | 0.00 | 65 | 1012.0 |
| 20260905213554 | 90 | 224 | 1.0 | 5.0 | 0.00 | 0.08 | 0.00 | 65 | 1012.1 |
| 20260905213351 | 91 | 216 | 2.0 | 4.0 | 0.00 | 0.08 | 0.00 | 64 | 1013.0 |
| 20260905213032 | 91 | 227 | 1.0 | 4.0 | 0.00 | 0.08 | 0.00 | 64 | 1012.1 |
| 20260905212533 | 91 | 224 | 1.0 | 5.0 | 0.00 | 0.08 | 0.00 | 63 | 1012.2 |
| 20260905212020 | 91 | 182 | 0.0 | 5.0 | 0.00 | 0.08 | 0.00 | 63 | 1012.1 |
| 20260905211836 | 92 | 282 | 1.0 | 5.0 | 0.00 | 0.08 | 0.00 | 62 | 1013.0 |
| 20260905211556 | 92 | 239 | 1.0 | 6.0 | 0.00 | 0.08 | 0.00 | 61 | 1012.2 |
| 20260905211051 | 92 | 242 | 2.0 | 8.0 | 0.00 | 0.08 | 0.00 | 62 | 1012.3 |
| 20260905210547 | 92 | 173 | 2.0 | 8.0 | 0.00 | 0.08 | 0.00 | 63 | 1012.4 |
| 20260905210327 | 92 | 142 | 2.0 | 8.0 | 0.00 | 0.08 | 0.00 | 62 | 1013.2 |
| 20260905210052 | 92 | 189 | 2.0 | 7.0 | 0.00 | 0.18 | 0.00 | 63 | 1012.5 |
| 20260905205535 | 92 | 247 | 1.0 | 6.0 | 0.00 | 0.18 | 0.00 | 63 | 1012.5 |
| 20260905205037 | 91 | 215 | 3.0 | 8.0 | 0.00 | 0.18 | 0.00 | 65 | 1012.4 |
| 20260905204813 | 92 | 242 | 2.0 | 8.0 | 0.00 | 0.18 | 0.00 | 65 | 1013.2 |
| 20260905204535 | 91 | 283 | 3.0 | 8.0 | 0.00 | 0.18 | 0.00 | 65 | 1012.3 |
| 20260905204023 | 90 | 212 | 3.0 | 7.0 | 0.00 | 0.18 | 0.00 | 67 | 1012.3 |
| 20260905203525 | 90 | 230 | 2.0 | 7.0 | 0.00 | 0.18 | 0.00 | 67 | 1012.2 |
| 20260905203343 | 90 | 218 | 3.0 | 7.0 | 0.00 | 0.18 | 0.00 | 68 | 1013.1 |
| 20260905203003 | 89 | 252 | 2.0 | 7.0 | 0.00 | 0.18 | 0.00 | 68 | 1012.2 |
| 20260905202558 | 90 | 259 | 3.0 | 7.0 | 0.00 | 0.18 | 0.00 | 66 | 1012.4 |
| 20260905202502 | 89 | 220 | 2.0 | 8.0 | 0.00 | 0.18 | 0.00 | 67 | 1012.3 |
| 20260905202058 | 89 | 291 | 3.0 | 8.0 | 0.00 | 0.18 | 0.00 | 66 | 1012.3 |
| 20260905202002 | 89 | 259 | 4.0 | 8.0 | 0.00 | 0.18 | 0.00 | 65 | 1012.3 |
| 20260905201827 | 90 | 262 | 3.0 | 7.0 | 0.00 | 0.18 | 0.00 | 65 | 1013.2 |
| 20260905201507 | 89 | 266 | 4.0 | 9.0 | 0.00 | 0.18 | 0.00 | 64 | 1012.3 |
| 20260905201010 | 89 | 288 | 2.0 | 9.0 | 0.00 | 0.18 | 0.00 | 68 | 1012.4 |
| 20260905200512 | 90 | 251 | 3.0 | 9.0 | 0.00 | 0.18 | 0.00 | 65 | 1012.4 |
| 20260905200314 | 91 | 272 | 4.0 | 9.0 | 0.00 | 0.18 | 0.00 | 63 | 1013.4 |
| 20260905200020 | 91 | 263 | 5.0 | 9.0 | 0.00 | 0.18 | 0.00 | 62 | 1012.5 |
| 20260905195512 | 92 | 254 | 4.0 | 7.0 | 0.00 | 0.18 | 0.00 | 61 | 1012.6 |
| 20260905195008 | 93 | 255 | 1.0 | 7.0 | 0.00 | 0.18 | 0.00 | 61 | 1012.7 |
| 20260905194819 | 94 | 222 | 1.0 | 7.0 | 0.00 | 0.18 | 0.00 | 59 | 1013.6 |
| 20260905194508 | 93 | 242 | 2.0 | 7.0 | 0.00 | 0.18 | 0.00 | 61 | 1012.7 |
| 20260905194008 | 92 | 258 | 2.0 | 6.0 | 0.00 | 0.18 | 0.00 | 62 | 1012.8 |
| 20260905193508 | 92 | 311 | 2.0 | 8.0 | 0.00 | 0.18 | 0.00 | 63 | 1013.0 |
| 20260905193326 | 93 | 279 | 3.0 | 8.0 | 0.00 | 0.18 | 0.00 | 62 | 1013.9 |
| 20260905193005 | 92 | 226 | 1.0 | 8.0 | 0.00 | 0.18 | 0.00 | 64 | 1013.0 |
| 20260905192506 | 92 | 292 | 3.0 | 8.0 | 0.00 | 0.18 | 0.00 | 64 | 1013.3 |
| 20260905192009 | 93 | 254 | 2.0 | 6.0 | 0.00 | 0.18 | 0.00 | 62 | 1013.2 |
| 20260905191831 | 93 | 210 | 3.0 | 9.0 | 0.00 | 0.18 | 0.00 | 61 | 1014.1 |
| 20260905191505 | 92 | 227 | 2.0 | 9.0 | 0.00 | 0.18 | 0.00 | 63 | 1013.1 |
| 20260905191100 | 92 | 221 | 3.0 | 9.0 | 0.00 | 0.18 | 0.00 | 61 | 1013.2 |
| 20260905191002 | 92 | 193 | 2.0 | 8.0 | 0.00 | 0.18 | 0.00 | 63 | 1013.1 |
| 20260905190600 | 91 | 103 | 1.0 | 8.0 | 0.00 | 0.18 | 0.00 | 67 | 1013.3 |
| 20260905190504 | 90 | 202 | 2.0 | 8.0 | 0.00 | 0.18 | 0.00 | 67 | 1013.3 |
| 20260905190318 | 91 | 297 | 4.0 | 8.0 | 0.00 | 0.18 | 0.00 | 65 | 1014.2 |
| 20260905190008 | 90 | 283 | 4.0 | 8.0 | 0.00 | 0.18 | 0.00 | 63 | 1013.3 |
| 20260905185514 | 90 | 288 | 1.0 | 10.0 | 0.00 | 0.18 | 0.00 | 63 | 1013.3 |
| 20260905185020 | 90 | 321 | 3.0 | 10.0 | 0.00 | 0.18 | 0.00 | 63 | 1013.4 |
| 20260905184825 | 91 | 290 | 4.0 | 10.0 | 0.00 | 0.18 | 0.00 | 64 | 1014.3 |
| 20260905184530 | 91 | 296 | 3.0 | 8.0 | 0.00 | 0.18 | 0.00 | 64 | 1013.4 |
| 20260905184031 | 92 | 257 | 2.0 | 7.0 | 0.00 | 0.18 | 0.00 | 62 | 1013.4 |
| 20260905183526 | 91 | 205 | 2.0 | 7.0 | 0.00 | 0.18 | 0.00 | 62 | 1013.4 |
| 20260905183333 | 91 | 232 | 3.0 | 7.0 | 0.00 | 0.18 | 0.00 | 66 | 1014.5 |
| 20260905183028 | 90 | 214 | 1.0 | 5.0 | 0.00 | 0.18 | 0.00 | 68 | 1013.6 |
| 20260905182533 | 90 | 280 | 3.0 | 8.0 | 0.00 | 0.18 | 0.00 | 66 | 1013.6 |
| 20260905182033 | 90 | 257 | 4.0 | 8.0 | 0.00 | 0.18 | 0.00 | 67 | 1013.7 |
| 20260905181839 | 90 | 267 | 3.0 | 8.0 | 0.00 | 0.18 | 0.00 | 66 | 1014.6 |
| 20260905181512 | 90 | 251 | 2.0 | 8.0 | 0.00 | 0.18 | 0.00 | 64 | 1013.8 |
| 20260905181008 | 90 | 153 | 1.0 | 4.0 | 0.00 | 0.18 | 0.00 | 66 | 1013.9 |
| 20260905180506 | 89 | 223 | 1.0 | 6.0 | 0.00 | 0.18 | 0.00 | 66 | 1014.0 |
| 20260905180325 | 90 | 284 | 1.0 | 6.0 | 0.00 | 0.18 | 0.00 | 66 | 1014.9 |
| 20260905180047 | 89 | 213 | 1.0 | 6.0 | 0.00 | 0.18 | 0.00 | 69 | 1014.0 |
| 20260905175543 | 89 | 286 | 2.0 | 6.0 | 0.00 | 0.18 | 0.00 | 68 | 1014.3 |
| 20260905175044 | 89 | 211 | 2.0 | 7.0 | 0.00 | 0.18 | 0.00 | 68 | 1014.4 |
| 20260905174829 | 89 | 267 | 3.0 | 7.0 | 0.00 | 0.18 | 0.00 | 68 | 1015.2 |
| 20260905174526 | 89 | 289 | 4.0 | 7.0 | 0.00 | 0.18 | 0.00 | 68 | 1014.4 |
| 20260905174030 | 89 | 215 | 2.0 | 7.0 | 0.00 | 0.18 | 0.00 | 68 | 1014.5 |
| 20260905173535 | 88 | 225 | 2.0 | 7.0 | 0.00 | 0.18 | 0.00 | 69 | 1014.6 |
| 20260905173318 | 89 | 295 | 3.0 | 7.0 | 0.00 | 0.18 | 0.00 | 68 | 1015.6 |
| 20260905173026 | 88 | 171 | 1.0 | 5.0 | 0.00 | 0.18 | 0.00 | 68 | 1014.7 |
| 20260905172524 | 88 | 201 | 1.0 | 5.0 | 0.00 | 0.18 | 0.00 | 69 | 1014.6 |
| 20260905172023 | 87 | 282 | 2.0 | 8.0 | 0.00 | 0.18 | 0.00 | 70 | 1014.7 |
| 20260905171831 | 88 | 226 | 1.0 | 8.0 | 0.00 | 0.18 | 0.00 | 72 | 1015.6 |
| 20260905171519 | 87 | 273 | 2.0 | 6.0 | 0.00 | 0.18 | 0.00 | 70 | 1014.8 |
| 20260905171014 | 87 | 195 | 1.0 | 6.0 | 0.00 | 0.18 | 0.00 | 71 | 1015.0 |
| 20260905170512 | 88 | 271 | 1.0 | 7.0 | 0.00 | 0.18 | 0.00 | 69 | 1014.9 |
| 20260905170323 | 88 | 234 | 1.0 | 7.0 | 0.00 | 0.18 | 0.00 | 69 | 1015.8 |
| 20260905170011 | 88 | 241 | 2.0 | 7.0 | 0.00 | 0.18 | 0.00 | 69 | 1015.0 |
| 20260905165506 | 88 | 193 | 1.0 | 6.0 | 0.00 | 0.18 | 0.00 | 71 | 1015.0 |
| 20260905165056 | 88 | 212 | 2.0 | 7.0 | 0.00 | 0.18 | 0.00 | 71 | 1015.0 |
| 20260905164832 | 88 | 270 | 2.0 | 7.0 | 0.00 | 0.18 | 0.00 | 72 | 1016.0 |
| 20260905164539 | 88 | 217 | 2.0 | 7.0 | 0.00 | 0.18 | 0.00 | 70 | 1015.0 |
| 20260905164038 | 87 | 5 | 1.0 | 4.0 | 0.00 | 0.18 | 0.00 | 72 | 1015.1 |
| 20260905163533 | 86 | 211 | 1.0 | 5.0 | 0.00 | 0.18 | 0.00 | 73 | 1015.2 |
| 20260905163323 | 86 | 195 | 2.0 | 5.0 | 0.00 | 0.18 | 0.00 | 74 | 1016.1 |
| 20260905163027 | 86 | 315 | 2.0 | 5.0 | 0.00 | 0.18 | 0.00 | 72 | 1015.4 |
| 20260905162528 | 87 | 256 | 1.0 | 5.0 | 0.00 | 0.18 | 0.00 | 71 | 1015.4 |
| 20260905162023 | 87 | 255 | 1.0 | 4.0 | 0.00 | 0.18 | 0.00 | 71 | 1015.4 |
| 20260905161835 | 87 | 188 | 1.0 | 5.0 | 0.00 | 0.18 | 0.00 | 72 | 1016.3 |
| 20260905161606 | 86 | 206 | 0.0 | 5.0 | 0.00 | 0.18 | 0.00 | 72 | 1015.4 |
| 20260905161052 | 86 | 136 | 2.0 | 5.0 | 0.00 | 0.18 | 0.00 | 73 | 1015.5 |
| 20260905160544 | 85 | 155 | 1.0 | 6.0 | 0.00 | 0.18 | 0.00 | 73 | 1015.6 |
| 20260905160343 | 86 | 223 | 2.0 | 6.0 | 0.00 | 0.18 | 0.00 | 74 | 1016.4 |
| 20260905160019 | 85 | 192 | 3.0 | 6.0 | 0.00 | 0.18 | 0.00 | 75 | 1015.5 |
| 20260905155517 | 84 | 304 | 2.0 | 5.0 | 0.00 | 0.18 | 0.00 | 79 | 1015.5 |
| 20260905155014 | 83 | 304 | 1.0 | 5.0 | 0.00 | 0.18 | 0.00 | 78 | 1015.6 |
| 20260905154833 | 84 | 292 | 3.0 | 5.0 | 0.00 | 0.18 | 0.00 | 76 | 1016.5 |
| 20260905154511 | 83 | 195 | 1.0 | 6.0 | 0.00 | 0.18 | 0.00 | 78 | 1015.6 |
| 20260905154007 | 82 | 205 | 2.0 | 6.0 | 0.00 | 0.18 | 0.00 | 79 | 1015.6 |
| 20260905153601 | 82 | 292 | 2.0 | 6.0 | 0.00 | 0.18 | 0.00 | 80 | 1015.8 |
| 20260905153502 | 82 | 293 | 2.0 | 6.0 | 0.00 | 0.18 | 0.00 | 80 | 1015.9 |
| 20260905153323 | 82 | 255 | 2.0 | 6.0 | 0.00 | 0.18 | 0.00 | 80 | 1016.8 |
| 20260905153056 | 82 | 262 | 0.0 | 3.0 | 0.00 | 0.18 | 0.00 | 80 | 1015.9 |
| 20260905152554 | 82 | 284 | 1.0 | 4.0 | 0.00 | 0.18 | 0.00 | 80 | 1016.0 |
| 20260905152050 | 81 | 313 | 1.0 | 4.0 | 0.00 | 0.18 | 0.00 | 80 | 1016.0 |
| 20260905151814 | 82 | 293 | 2.0 | 4.0 | 0.00 | 0.18 | 0.00 | 80 | 1016.9 |
| 20260905151546 | 81 | 304 | 1.0 | 4.0 | 0.00 | 0.18 | 0.00 | 80 | 1016.0 |
| 20260905151044 | 81 | 199 | 0.0 | 4.0 | 0.00 | 0.18 | 0.00 | 81 | 1016.1 |
| 20260905150542 | 81 | 301 | 2.0 | 4.0 | 0.00 | 0.18 | 0.00 | 81 | 1016.0 |
| 20260905150326 | 81 | 271 | 1.0 | 4.0 | 0.00 | 0.18 | 0.00 | 82 | 1016.8 |
| 20260905150034 | 80 | 277 | 0.0 | 5.0 | 0.00 | 0.18 | 0.00 | 81 | 1015.9 |
| 20260905145533 | 80 | 270 | 2.0 | 5.0 | 0.00 | 0.18 | 0.00 | 81 | 1016.0 |
| 20260905145028 | 80 | 320 | 1.0 | 5.0 | 0.00 | 0.18 | 0.00 | 82 | 1016.0 |
| 20260905144853 | 80 | 297 | 1.0 | 5.0 | 0.00 | 0.18 | 0.00 | 82 | 1016.9 |
| 20260905144601 | 80 | 273 | 1.0 | 5.0 | 0.00 | 0.18 | 0.00 | 82 | 1016.0 |
| 20260905144506 | 80 | 273 | 1.0 | 5.0 | 0.00 | 0.18 | 0.00 | 83 | 1016.1 |
| 20260905144058 | 80 | 278 | 2.0 | 5.0 | 0.00 | 0.18 | 0.00 | 82 | 1016.1 |
| 20260905143556 | 80 | 310 | 1.0 | 5.0 | 0.00 | 0.18 | 0.00 | 83 | 1016.2 |
| 20260905143323 | 80 | 5 | 3.0 | 8.0 | 0.00 | 0.18 | 0.00 | 82 | 1017.1 |
| 20260905143052 | 80 | 277 | 2.0 | 8.0 | 0.00 | 0.18 | 0.00 | 82 | 1016.2 |
| 20260905142552 | 79 | 296 | 3.0 | 8.0 | 0.00 | 0.18 | 0.00 | 83 | 1016.1 |
| 20260905142047 | 79 | 257 | 2.0 | 8.0 | 0.00 | 0.18 | 0.00 | 85 | 1016.1 |
| 20260905141825 | 79 | 289 | 4.0 | 8.0 | 0.00 | 0.18 | 0.00 | 85 | 1017.0 |
| 20260905141544 | 79 | 280 | 3.0 | 7.0 | 0.00 | 0.18 | 0.00 | 86 | 1016.1 |
| 20260905141034 | 78 | 283 | 3.0 | 7.0 | 0.00 | 0.18 | 0.00 | 86 | 1016.0 |
| 20260905140532 | 78 | 260 | 3.0 | 7.0 | 0.00 | 0.18 | 0.00 | 86 | 1015.8 |
| 20260905140329 | 78 | 293 | 4.0 | 7.0 | 0.00 | 0.18 | 0.00 | 87 | 1016.8 |
| 20260905140028 | 78 | 240 | 2.0 | 4.0 | 0.00 | 0.18 | 0.00 | 88 | 1015.9 |
| 20260905135526 | 77 | 312 | 1.0 | 7.0 | 0.00 | 0.18 | 0.00 | 88 | 1016.1 |
| 20260905135025 | 77 | 260 | 1.0 | 7.0 | 0.00 | 0.18 | 0.00 | 89 | 1016.0 |
| 20260905134849 | 77 | 282 | 2.0 | 7.0 | 0.00 | 0.18 | 0.00 | 89 | 1017.0 |
| 20260905134558 | 77 | 267 | 2.0 | 5.0 | 0.00 | 0.18 | 0.00 | 89 | 1016.1 |
| 20260905134054 | 77 | 238 | 2.0 | 8.0 | 0.00 | 0.18 | 0.00 | 90 | 1015.9 |
| 20260905133550 | 76 | 265 | 3.0 | 8.0 | 0.00 | 0.18 | 0.00 | 91 | 1016.0 |
| 20260905133332 | 76 | 286 | 3.0 | 6.0 | 0.00 | 0.18 | 0.00 | 91 | 1016.9 |
| 20260905133048 | 76 | 264 | 0.0 | 7.0 | 0.00 | 0.18 | 0.00 | 91 | 1015.9 |
| 20260905132547 | 76 | 240 | 3.0 | 7.0 | 0.00 | 0.18 | 0.00 | 92 | 1016.0 |
| 20260905132046 | 76 | 265 | 1.0 | 7.0 | 0.00 | 0.18 | 0.00 | 92 | 1016.0 |
| 20260905131851 | 76 | 300 | 2.0 | 7.0 | 0.00 | 0.18 | 0.00 | 92 | 1016.8 |
| 20260905131530 | 75 | 253 | 3.0 | 7.0 | 0.00 | 0.18 | 0.00 | 92 | 1016.0 |
| 20260905131030 | 75 | 273 | 2.0 | 7.0 | 0.00 | 0.18 | 0.00 | 92 | 1016.2 |
| 20260905130535 | 75 | 292 | 0.0 | 7.0 | 0.00 | 0.18 | 0.00 | 92 | 1016.1 |
| 20260905130333 | 75 | 281 | 2.0 | 7.0 | 0.00 | 0.18 | 0.00 | 92 | 1016.9 |
| 20260905130036 | 75 | 279 | 2.0 | 4.0 | 0.00 | 0.18 | 0.00 | 92 | 1016.0 |
| 20260905125538 | 75 | 238 | 1.0 | 3.0 | 0.00 | 0.18 | 0.00 | 92 | 1016.0 |
| 20260905125030 | 75 | 250 | 1.0 | 4.0 | 0.00 | 0.18 | 0.00 | 92 | 1015.9 |
| 20260905124821 | 75 | 267 | 2.0 | 4.0 | 0.00 | 0.18 | 0.00 | 92 | 1016.7 |
| 20260905124524 | 74 | 258 | 1.0 | 4.0 | 0.00 | 0.18 | 0.00 | 92 | 1015.8 |
| 20260905124020 | 74 | 291 | 1.0 | 4.0 | 0.00 | 0.18 | 0.00 | 92 | 1015.8 |
| 20260905123516 | 74 | 268 | 1.0 | 4.0 | 0.00 | 0.18 | 0.00 | 92 | 1015.8 |
| 20260905123315 | 75 | 284 | 2.0 | 3.0 | 0.00 | 0.18 | 0.00 | 92 | 1016.9 |
| 20260905123012 | 74 | 265 | 1.0 | 4.0 | 0.00 | 0.18 | 0.00 | 92 | 1015.9 |
| 20260905122508 | 74 | 267 | 2.0 | 4.0 | 0.00 | 0.18 | 0.00 | 92 | 1015.9 |
| 20260905122004 | 74 | 282 | 1.0 | 4.0 | 0.00 | 0.18 | 0.00 | 92 | 1015.8 |
| 20260905121822 | 75 | 286 | 2.0 | 4.0 | 0.00 | 0.18 | 0.00 | 92 | 1016.6 |
| 20260905121600 | 74 | 259 | 1.0 | 3.0 | 0.00 | 0.18 | 0.00 | 92 | 1015.7 |
| 20260905121502 | 74 | 257 | 1.0 | 3.0 | 0.00 | 0.18 | 0.00 | 92 | 1015.6 |
| 20260905121056 | 74 | 262 | 1.0 | 5.0 | 0.00 | 0.18 | 0.00 | 92 | 1015.6 |
| 20260905120552 | 74 | 266 | 2.0 | 5.0 | 0.00 | 0.18 | 0.00 | 92 | 1015.5 |
| 20260905120314 | 75 | 248 | 1.0 | 5.0 | 0.00 | 0.18 | 0.00 | 92 | 1016.5 |
| 20260905120048 | 74 | 278 | 1.0 | 3.0 | 0.00 | 0.18 | 0.00 | 92 | 1015.5 |
| 20260905115544 | 74 | 278 | 0.0 | 2.0 | 0.00 | 0.18 | 0.00 | 92 | 1015.6 |
| 20260905115134 | 74 | 278 | 0.0 | 2.0 | 0.00 | 0.18 | 0.00 | 92 | 1015.6 |
| 20260905113046 | 74 | 278 | 1.0 | 2.0 | 0.00 | 0.18 | 0.00 | 92 | 1015.1 |
| 20260905112544 | 74 | 278 | 1.0 | 3.0 | 0.00 | 0.18 | 0.00 | 92 | 1015.2 |
| 20260905112041 | 74 | 278 | 0.0 | 3.0 | 0.00 | 0.18 | 0.00 | 92 | 1015.2 |
| 20260905111841 | 75 | 278 | 1.0 | 3.0 | 0.00 | 0.18 | 0.00 | 92 | 1016.0 |
| 20260905111512 | 74 | 278 | 0.0 | 2.0 | 0.00 | 0.18 | 0.00 | 92 | 1015.2 |
| 20260905111009 | 74 | 278 | 0.0 | 3.0 | 0.00 | 0.18 | 0.00 | 92 | 1015.2 |
| 20260905110503 | 74 | 286 | 1.0 | 3.0 | 0.00 | 0.18 | 0.00 | 92 | 1015.1 |
| 20260905110326 | 75 | 267 | 2.0 | 3.0 | 0.00 | 0.18 | 0.00 | 92 | 1016.0 |
| 20260905110058 | 74 | 311 | 0.0 | 3.0 | 0.00 | 0.18 | 0.00 | 92 | 1015.1 |
| 20260905105554 | 74 | 265 | 0.0 | 2.0 | 0.00 | 0.18 | 0.00 | 92 | 1015.1 |
| 20260905105054 | 74 | 265 | 0.0 | 2.0 | 0.00 | 0.18 | 0.00 | 92 | 1014.9 |
| 20260905104831 | 75 | 265 | 1.0 | 2.0 | 0.00 | 0.18 | 0.00 | 92 | 1015.8 |
| 20260905104551 | 74 | 265 | 1.0 | 2.0 | 0.00 | 0.18 | 0.00 | 92 | 1014.9 |
| 20260905104037 | 74 | 265 | 1.0 | 2.0 | 0.00 | 0.18 | 0.00 | 92 | 1014.9 |
| 20260905103540 | 74 | 265 | 0.0 | 2.0 | 0.00 | 0.18 | 0.00 | 92 | 1014.9 |
| 20260905103315 | 75 | 265 | 0.0 | 2.0 | 0.00 | 0.18 | 0.00 | 92 | 1015.8 |
| 20260905103036 | 74 | 265 | 0.0 | 3.0 | 0.00 | 0.18 | 0.00 | 92 | 1014.9 |
| 20260905102527 | 74 | 265 | 1.0 | 3.0 | 0.00 | 0.18 | 0.00 | 92 | 1014.9 |
| 20260905102026 | 74 | 286 | 1.0 | 3.0 | 0.00 | 0.18 | 0.00 | 92 | 1014.9 |
| 20260905101840 | 75 | 264 | 2.0 | 3.0 | 0.00 | 0.18 | 0.00 | 92 | 1015.6 |
| 20260905101605 | 74 | 268 | 1.0 | 2.0 | 0.00 | 0.18 | 0.00 | 92 | 1014.9 |
| 20260905101053 | 74 | 298 | 0.0 | 3.0 | 0.00 | 0.18 | 0.00 | 92 | 1014.9 |
| 20260905100549 | 74 | 216 | 1.0 | 3.0 | 0.00 | 0.18 | 0.00 | 92 | 1014.8 |
| 20260905100326 | 75 | 258 | 1.0 | 3.0 | 0.00 | 0.18 | 0.00 | 92 | 1015.6 |
| 20260905100114 | 74 | 230 | 0.0 | 3.0 | 0.00 | 0.18 | 0.00 | 92 | 1014.7 |
| 20260905095545 | 74 | 230 | 1.0 | 3.0 | 0.00 | 0.18 | 0.00 | 92 | 1014.7 |
| 20260905095037 | 74 | 201 | 1.0 | 5.0 | 0.00 | 0.18 | 0.00 | 92 | 1014.6 |
| 20260905094831 | 75 | 222 | 2.0 | 5.0 | 0.00 | 0.18 | 0.00 | 92 | 1015.5 |
| 20260905094546 | 74 | 237 | 0.0 | 4.0 | 0.00 | 0.18 | 0.00 | 92 | 1014.5 |
| 20260905094033 | 75 | 252 | 1.0 | 4.0 | 0.00 | 0.18 | 0.00 | 92 | 1014.5 |
| 20260905093523 | 75 | 224 | 0.0 | 2.0 | 0.00 | 0.18 | 0.00 | 92 | 1014.4 |
| 20260905093315 | 75 | 261 | 1.0 | 2.0 | 0.00 | 0.18 | 0.00 | 92 | 1015.3 |
| 20260905093020 | 75 | 157 | 0.0 | 3.0 | 0.00 | 0.18 | 0.00 | 92 | 1014.4 |
| 20260905092521 | 75 | 132 | 0.0 | 3.0 | 0.00 | 0.18 | 0.00 | 92 | 1014.2 |
| 20260905092019 | 74 | 165 | 1.0 | 3.0 | 0.00 | 0.18 | 0.00 | 92 | 1014.1 |
| 20260905091839 | 75 | 200 | 1.0 | 3.0 | 0.00 | 0.18 | 0.00 | 92 | 1015.0 |
| 20260905091557 | 75 | 253 | 0.0 | 2.0 | 0.00 | 0.18 | 0.00 | 92 | 1014.1 |
| 20260905091045 | 74 | 253 | 0.0 | 2.0 | 0.00 | 0.18 | 0.00 | 92 | 1014.2 |
| 20260905090544 | 74 | 253 | 0.0 | 3.0 | 0.00 | 0.18 | 0.00 | 92 | 1014.2 |
| 20260905090326 | 75 | 253 | 1.0 | 4.0 | 0.00 | 0.18 | 0.00 | 92 | 1015.1 |
| 20260905090033 | 74 | 279 | 1.0 | 4.0 | 0.00 | 0.18 | 0.00 | 92 | 1014.2 |
| 20260905085534 | 74 | 259 | 1.0 | 5.0 | 0.00 | 0.18 | 0.00 | 92 | 1014.3 |
| 20260905085029 | 75 | 190 | 1.0 | 4.0 | 0.00 | 0.18 | 0.00 | 92 | 1014.2 |
| 20260905084831 | 75 | 216 | 0.0 | 4.0 | 0.00 | 0.18 | 0.00 | 92 | 1015.1 |
| 20260905084529 | 75 | 249 | 0.0 | 5.0 | 0.00 | 0.18 | 0.00 | 92 | 1014.3 |
| 20260905084019 | 75 | 243 | 1.0 | 4.0 | 0.00 | 0.18 | 0.00 | 92 | 1014.2 |
| 20260905083519 | 75 | 221 | 0.0 | 4.0 | 0.00 | 0.18 | 0.00 | 92 | 1014.4 |
| 20260905083338 | 75 | 210 | 1.0 | 4.0 | 0.00 | 0.18 | 0.00 | 92 | 1015.2 |
| 20260905083105 | 75 | 238 | 1.0 | 4.0 | 0.00 | 0.18 | 0.00 | 92 | 1014.3 |
| 20260905082543 | 75 | 225 | 0.0 | 3.0 | 0.00 | 0.18 | 0.00 | 92 | 1014.3 |
| 20260905082040 | 75 | 267 | 1.0 | 3.0 | 0.00 | 0.18 | 0.00 | 92 | 1014.5 |
| 20260905081822 | 75 | 267 | 2.0 | 3.0 | 0.00 | 0.18 | 0.00 | 92 | 1015.4 |
| 20260905081531 | 75 | 268 | 0.0 | 1.0 | 0.00 | 0.18 | 0.00 | 92 | 1014.5 |
| 20260905081027 | 75 | 268 | 0.0 | 1.0 | 0.00 | 0.18 | 0.00 | 92 | 1014.5 |
| 20260905080527 | 75 | 268 | 0.0 | 2.0 | 0.00 | 0.18 | 0.00 | 92 | 1014.5 |
| 20260905080330 | 75 | 268 | 0.0 | 2.0 | 0.00 | 0.18 | 0.00 | 92 | 1015.3 |
| 20260905080021 | 75 | 267 | 0.0 | 4.0 | 0.00 | 0.18 | 0.00 | 92 | 1014.4 |
| 20260905075516 | 75 | 268 | 0.0 | 4.0 | 0.00 | 0.18 | 0.00 | 92 | 1014.4 |
| 20260905075013 | 75 | 279 | 2.0 | 6.0 | 0.00 | 0.18 | 0.00 | 92 | 1014.4 |
| 20260905074815 | 75 | 284 | 2.0 | 6.0 | 0.00 | 0.18 | 0.00 | 92 | 1015.3 |
| 20260905074517 | 75 | 284 | 2.0 | 6.0 | 0.00 | 0.18 | 0.00 | 92 | 1014.4 |
| 20260905074009 | 75 | 251 | 0.0 | 6.0 | 0.00 | 0.18 | 0.00 | 92 | 1014.4 |
| 20260905073503 | 75 | 269 | 1.0 | 3.0 | 0.00 | 0.18 | 0.00 | 92 | 1014.4 |
| 20260905073341 | 75 | 311 | 2.0 | 3.0 | 0.00 | 0.18 | 0.00 | 92 | 1015.4 |
| 20260905073039 | 75 | 292 | 1.0 | 3.0 | 0.00 | 0.18 | 0.00 | 92 | 1014.4 |
| 20260905072530 | 75 | 260 | 0.0 | 2.0 | 0.00 | 0.18 | 0.00 | 92 | 1014.3 |
| 20260905072028 | 75 | 260 | 0.0 | 3.0 | 0.00 | 0.18 | 0.00 | 92 | 1014.4 |
| 20260905071823 | 75 | 260 | 0.0 | 3.0 | 0.00 | 0.18 | 0.00 | 92 | 1015.2 |
| 20260905071523 | 75 | 260 | 0.0 | 2.0 | 0.00 | 0.18 | 0.00 | 92 | 1014.4 |
| 20260905071022 | 75 | 260 | 0.0 | 2.0 | 0.00 | 0.18 | 0.00 | 92 | 1014.2 |
| 20260905070523 | 75 | 260 | 0.0 | 2.0 | 0.00 | 0.18 | 0.00 | 92 | 1014.3 |
| 20260905070330 | 75 | 260 | 0.0 | 2.0 | 0.00 | 0.18 | 0.00 | 92 | 1015.2 |
| 20260905070013 | 75 | 260 | 0.0 | 2.0 | 0.00 | 0.18 | 0.00 | 92 | 1014.3 |
| 20260905065513 | 75 | 260 | 0.0 | 3.0 | 0.00 | 0.18 | 0.00 | 92 | 1014.3 |
| 20260905065009 | 75 | 260 | 1.0 | 4.0 | 0.00 | 0.18 | 0.00 | 92 | 1014.4 |
| 20260905064815 | 76 | 260 | 1.0 | 4.0 | 0.00 | 0.18 | 0.00 | 92 | 1015.3 |
| 20260905064508 | 75 | 255 | 1.0 | 2.0 | 0.00 | 0.18 | 0.00 | 92 | 1014.5 |
| 20260905064004 | 75 | 242 | 0.0 | 2.0 | 0.00 | 0.18 | 0.00 | 92 | 1014.6 |
| 20260905063559 | 75 | 294 | 0.0 | 2.0 | 0.00 | 0.18 | 0.00 | 92 | 1014.5 |
| 20260905063502 | 75 | 294 | 0.0 | 2.0 | 0.00 | 0.18 | 0.00 | 92 | 1014.6 |
| 20260905063322 | 76 | 294 | 1.0 | 2.0 | 0.00 | 0.18 | 0.00 | 92 | 1015.5 |
| 20260905063005 | 75 | 294 | 0.0 | 3.0 | 0.00 | 0.18 | 0.00 | 92 | 1014.6 |
| 20260905062508 | 75 | 236 | 0.0 | 3.0 | 0.00 | 0.18 | 0.00 | 92 | 1014.6 |
| 20260905062018 | 75 | 276 | 0.0 | 4.0 | 0.00 | 0.18 | 0.00 | 92 | 1014.7 |
| 20260905061822 | 75 | 234 | 1.0 | 4.0 | 0.00 | 0.18 | 0.00 | 92 | 1015.5 |
| 20260905061515 | 75 | 213 | 1.0 | 3.0 | 0.00 | 0.18 | 0.00 | 92 | 1014.7 |
| 20260905061021 | 75 | 229 | 0.0 | 3.0 | 0.00 | 0.18 | 0.00 | 92 | 1014.6 |
| 20260905060524 | 75 | 198 | 2.0 | 3.0 | 0.00 | 0.18 | 0.00 | 92 | 1014.7 |
| 20260905060345 | 76 | 208 | 2.0 | 2.0 | 0.00 | 0.18 | 0.00 | 92 | 1015.7 |
| 20260905060006 | 75 | 232 | 0.0 | 2.0 | 0.00 | 0.18 | 0.00 | 92 | 1014.9 |
| 20260905055510 | 75 | 278 | 0.0 | 2.0 | 0.00 | 0.18 | 0.00 | 92 | 1014.8 |
| 20260905055014 | 75 | 216 | 0.0 | 1.0 | 0.00 | 0.18 | 0.00 | 92 | 1014.8 |
| 20260905054822 | 76 | 259 | 0.0 | 1.0 | 0.00 | 0.18 | 0.00 | 92 | 1015.8 |
| 20260905054543 | 75 | 259 | 0.0 | 1.0 | 0.00 | 0.18 | 0.00 | 92 | 1014.9 |
| 20260905054022 | 75 | 192 | 0.0 | 2.0 | 0.00 | 0.18 | 0.00 | 92 | 1015.0 |
| 20260905053520 | 75 | 226 | 0.0 | 2.0 | 0.00 | 0.18 | 0.00 | 92 | 1015.0 |
| 20260905053322 | 76 | 257 | 0.0 | 2.0 | 0.00 | 0.18 | 0.00 | 92 | 1016.0 |
| 20260905053019 | 75 | 257 | 0.0 | 2.0 | 0.00 | 0.18 | 0.00 | 92 | 1015.1 |
| 20260905052524 | 75 | 178 | 0.0 | 3.0 | 0.00 | 0.18 | 0.00 | 92 | 1015.2 |
| 20260905052035 | 75 | 198 | 0.0 | 3.0 | 0.00 | 0.18 | 0.00 | 92 | 1015.2 |
| 20260905051820 | 75 | 214 | 2.0 | 3.0 | 0.00 | 0.18 | 0.00 | 92 | 1016.2 |
| 20260905051536 | 75 | 173 | 0.0 | 3.0 | 0.00 | 0.18 | 0.00 | 92 | 1015.3 |
| 20260905051040 | 75 | 197 | 1.0 | 3.0 | 0.00 | 0.18 | 0.00 | 92 | 1015.4 |
| 20260905050541 | 75 | 155 | 0.0 | 2.0 | 0.00 | 0.18 | 0.00 | 92 | 1015.2 |
| 20260905050342 | 75 | 219 | 1.0 | 2.0 | 0.00 | 0.18 | 0.00 | 92 | 1016.2 |
| 20260905050021 | 75 | 205 | 0.0 | 3.0 | 0.00 | 0.18 | 0.00 | 92 | 1015.3 |
| 20260905045531 | 75 | 178 | 1.0 | 3.0 | 0.00 | 0.18 | 0.00 | 92 | 1015.3 |
| 20260905045033 | 75 | 169 | 0.0 | 2.0 | 0.00 | 0.18 | 0.00 | 92 | 1015.3 |
| 20260905044840 | 75 | 169 | 0.0 | 2.0 | 0.00 | 0.18 | 0.00 | 92 | 1016.2 |
| 20260905044517 | 75 | 215 | 0.0 | 3.0 | 0.00 | 0.18 | 0.00 | 92 | 1015.2 |
| 20260905044019 | 75 | 178 | 0.0 | 2.0 | 0.00 | 0.18 | 0.00 | 92 | 1015.2 |
| 20260905043523 | 75 | 124 | 0.0 | 1.0 | 0.00 | 0.18 | 0.00 | 92 | 1015.3 |
| 20260905043319 | 75 | 124 | 0.0 | 1.0 | 0.00 | 0.18 | 0.00 | 92 | 1016.2 |
| 20260905043033 | 75 | 124 | 0.0 | 1.0 | 0.00 | 0.18 | 0.00 | 92 | 1015.3 |
| 20260905042537 | 75 | 124 | 0.0 | 1.0 | 0.00 | 0.18 | 0.00 | 92 | 1015.3 |
| 20260905042029 | 75 | 97 | 0.0 | 1.0 | 0.00 | 0.18 | 0.00 | 92 | 1015.2 |
| 20260905041838 | 75 | 97 | 0.0 | 2.0 | 0.00 | 0.18 | 0.00 | 92 | 1016.2 |
| 20260905041507 | 75 | 97 | 0.0 | 2.0 | 0.00 | 0.18 | 0.00 | 92 | 1015.3 |
| 20260905041007 | 75 | 88 | 0.0 | 1.0 | 0.00 | 0.18 | 0.00 | 92 | 1015.2 |
| 20260905040509 | 75 | 85 | 0.0 | 2.0 | 0.00 | 0.18 | 0.00 | 92 | 1015.2 |
| 20260905040337 | 75 | 133 | 1.0 | 2.0 | 0.00 | 0.18 | 0.00 | 92 | 1016.1 |
| 20260905040109 | 75 | 133 | 0.0 | 2.0 | 0.00 | 0.18 | 0.00 | 92 | 1015.1 |
| 20260905035556 | 75 | 133 | 0.0 | 2.0 | 0.00 | 0.18 | 0.18 | 92 | 1015.2 |
| 20260905035053 | 75 | 133 | 0.0 | 2.0 | 0.00 | 0.18 | 0.18 | 92 | 1015.1 |
| 20260905034815 | 75 | 116 | 0.0 | 2.0 | 0.00 | 0.18 | 0.18 | 92 | 1016.0 |
| 20260905034600 | 75 | 116 | 0.0 | 2.0 | 0.00 | 0.18 | 0.18 | 92 | 1015.2 |
| 20260905034048 | 75 | 113 | 0.0 | 2.0 | 0.00 | 0.18 | 0.18 | 92 | 1015.2 |
| 20260905033545 | 75 | 113 | 0.0 | 2.0 | 0.00 | 0.18 | 0.18 | 92 | 1015.4 |
| 20260905033323 | 76 | 113 | 1.0 | 2.0 | 0.00 | 0.18 | 0.18 | 92 | 1016.3 |
| 20260905033042 | 75 | 113 | 0.0 | 1.0 | 0.00 | 0.18 | 0.18 | 92 | 1015.5 |
| 20260905032536 | 75 | 113 | 0.0 | 2.0 | 0.00 | 0.18 | 0.18 | 92 | 1015.5 |
| 20260905032036 | 75 | 113 | 1.0 | 2.0 | 0.00 | 0.18 | 0.18 | 92 | 1015.6 |
| 20260905031849 | 76 | 135 | 1.0 | 2.0 | 0.00 | 0.18 | 0.18 | 92 | 1016.6 |
| 20260905031509 | 75 | 132 | 0.0 | 3.0 | 0.00 | 0.18 | 0.18 | 92 | 1015.5 |
| 20260905031005 | 75 | 146 | 0.0 | 3.0 | 0.00 | 0.18 | 0.18 | 92 | 1015.6 |
| 20260905030559 | 75 | 117 | 1.0 | 3.0 | 0.00 | 0.18 | 0.18 | 92 | 1015.8 |
| 20260905030501 | 75 | 117 | 0.0 | 3.0 | 0.00 | 0.18 | 0.18 | 92 | 1015.9 |
| 20260905030315 | 76 | 158 | 0.0 | 2.0 | 0.00 | 0.18 | 0.18 | 92 | 1016.7 |
| 20260905030055 | 75 | 123 | 1.0 | 2.0 | 0.00 | 0.18 | 0.18 | 92 | 1015.9 |
| 20260905025551 | 75 | 156 | 0.0 | 2.0 | 0.00 | 0.18 | 0.18 | 92 | 1015.9 |
| 20260905025047 | 75 | 157 | 0.0 | 2.0 | 0.00 | 0.18 | 0.18 | 92 | 1016.0 |
| 20260905024819 | 76 | 93 | 0.0 | 1.0 | 0.00 | 0.18 | 0.18 | 92 | 1016.8 |
| 20260905024556 | 75 | 93 | 0.0 | 1.0 | 0.00 | 0.18 | 0.18 | 92 | 1016.0 |
| 20260905024041 | 75 | 93 | 0.0 | 2.0 | 0.00 | 0.18 | 0.18 | 92 | 1016.0 |
| 20260905023533 | 75 | 93 | 0.0 | 2.0 | 0.00 | 0.18 | 0.18 | 92 | 1016.0 |
| 20260905023326 | 76 | 93 | 1.0 | 2.0 | 0.00 | 0.18 | 0.18 | 92 | 1016.9 |
| 20260905023007 | 75 | 93 | 0.0 | 2.0 | 0.00 | 0.18 | 0.18 | 92 | 1016.0 |
| 20260905022505 | 75 | 80 | 0.0 | 1.0 | 0.00 | 0.18 | 0.18 | 92 | 1015.9 |
| 20260905022004 | 75 | 80 | 0.0 | 1.0 | 0.00 | 0.18 | 0.18 | 92 | 1016.0 |
| 20260905021831 | 76 | 80 | 0.0 | 1.0 | 0.00 | 0.18 | 0.18 | 92 | 1016.9 |
| 20260905021557 | 75 | 80 | 0.0 | 1.0 | 0.00 | 0.18 | 0.18 | 92 | 1015.9 |
| 20260905021055 | 75 | 80 | 0.0 | 1.0 | 0.00 | 0.18 | 0.18 | 92 | 1016.0 |
| 20260905020556 | 76 | 80 | 0.0 | 1.0 | 0.00 | 0.18 | 0.18 | 92 | 1016.0 |
| 20260905020318 | 76 | 80 | 0.0 | 1.0 | 0.00 | 0.18 | 0.18 | 92 | 1016.8 |
| 20260905020054 | 76 | 80 | 0.0 | 1.0 | 0.00 | 0.18 | 0.18 | 92 | 1015.9 |
| 20260905015545 | 76 | 80 | 0.0 | 2.0 | 0.00 | 0.18 | 0.18 | 92 | 1015.8 |
| 20260905015042 | 76 | 130 | 0.0 | 2.0 | 0.00 | 0.18 | 0.18 | 92 | 1015.7 |
| 20260905014824 | 76 | 131 | 0.0 | 2.0 | 0.00 | 0.18 | 0.18 | 92 | 1016.6 |
| 20260905014534 | 75 | 116 | 0.0 | 2.0 | 0.00 | 0.18 | 0.18 | 92 | 1015.7 |
| 20260905014029 | 75 | 257 | 0.0 | 2.0 | 0.00 | 0.18 | 0.18 | 92 | 1015.7 |
| 20260905013526 | 75 | 257 | 0.0 | 2.0 | 0.00 | 0.18 | 0.18 | 92 | 1015.6 |
| 20260905013331 | 76 | 257 | 1.0 | 2.0 | 0.00 | 0.18 | 0.18 | 92 | 1016.5 |
| 20260905013021 | 75 | 257 | 0.0 | 1.0 | 0.00 | 0.18 | 0.18 | 92 | 1015.6 |
| 20260905012517 | 75 | 257 | 0.0 | 0.0 | 0.00 | 0.18 | 0.18 | 92 | 1015.5 |
| 20260905012013 | 75 | 257 | 0.0 | 2.0 | 0.00 | 0.18 | 0.18 | 92 | 1015.4 |
| 20260905011816 | 76 | 257 | 0.0 | 2.0 | 0.00 | 0.18 | 0.18 | 91 | 1016.4 |
| 20260905011513 | 75 | 257 | 0.0 | 2.0 | 0.00 | 0.18 | 0.18 | 92 | 1015.4 |
| 20260905011005 | 75 | 257 | 0.0 | 2.0 | 0.00 | 0.18 | 0.18 | 91 | 1015.3 |
| 20260905010502 | 75 | 257 | 0.0 | 2.0 | 0.00 | 0.18 | 0.18 | 91 | 1015.4 |
| 20260905010321 | 76 | 257 | 0.0 | 2.0 | 0.01 | 0.18 | 0.18 | 91 | 1016.4 |
| 20260905010106 | 75 | 257 | 0.0 | 2.0 | 0.01 | 0.18 | 0.18 | 91 | 1015.4 |
| 20260905005553 | 75 | 257 | 0.0 | 2.0 | 0.01 | 0.18 | 0.18 | 91 | 1015.4 |
| 20260905005047 | 75 | 257 | 1.0 | 3.0 | 0.01 | 0.18 | 0.18 | 91 | 1015.4 |
| 20260905004847 | 76 | 277 | 1.0 | 3.0 | 0.01 | 0.18 | 0.18 | 91 | 1016.4 |
| 20260905004523 | 75 | 273 | 0.0 | 3.0 | 0.01 | 0.18 | 0.18 | 91 | 1015.4 |
| 20260905004019 | 75 | 227 | 0.0 | 3.0 | 0.01 | 0.18 | 0.18 | 91 | 1015.4 |
| 20260905003515 | 75 | 240 | 0.0 | 3.0 | 0.02 | 0.18 | 0.18 | 91 | 1015.2 |
| 20260905003333 | 76 | 250 | 2.0 | 3.0 | 0.02 | 0.18 | 0.18 | 91 | 1016.2 |
| 20260905003009 | 75 | 241 | 0.0 | 5.0 | 0.03 | 0.18 | 0.18 | 91 | 1015.4 |
| 20260905002506 | 75 | 205 | 2.0 | 5.0 | 0.05 | 0.18 | 0.18 | 91 | 1015.5 |
| 20260905002005 | 75 | 186 | 0.0 | 6.0 | 0.06 | 0.18 | 0.18 | 91 | 1015.6 |
| 20260905001818 | 76 | 200 | 1.0 | 6.0 | 0.06 | 0.18 | 0.18 | 91 | 1016.5 |
| 20260905001559 | 75 | 131 | 0.0 | 7.0 | 0.07 | 0.18 | 0.18 | 91 | 1015.5 |
| 20260905001501 | 75 | 180 | 1.0 | 7.0 | 0.07 | 0.18 | 0.18 | 91 | 1015.5 |
| 20260905001056 | 75 | 171 | 2.0 | 7.0 | 0.08 | 0.18 | 0.18 | 90 | 1015.5 |
| 20260905000545 | 76 | 144 | 2.0 | 9.0 | 0.08 | 0.18 | 0.18 | 90 | 1015.4 |
| 20260905000347 | 76 | 205 | 3.0 | 9.0 | 0.07 | 0.17 | 0.17 | 90 | 1016.4 |
| 20260905000027 | 76 | 167 | 4.0 | 9.0 | 0.07 | 0.17 | 0.17 | 90 | 1015.6 |
| 20260904235514 | 76 | 128 | 2.0 | 6.0 | 0.07 | 0.17 | 0.17 | 90 | 1015.5 |
| 20260904235013 | 76 | 138 | 2.0 | 6.0 | 0.07 | 0.17 | 0.17 | 90 | 1015.4 |
| 20260904234830 | 77 | 115 | 3.0 | 6.0 | 0.07 | 0.17 | 0.17 | 90 | 1016.5 |
| 20260904234509 | 76 | 146 | 2.0 | 6.0 | 0.07 | 0.17 | 0.17 | 90 | 1015.6 |
| 20260904234005 | 76 | 117 | 3.0 | 7.0 | 0.07 | 0.17 | 0.17 | 89 | 1015.4 |
| 20260904233504 | 76 | 136 | 2.0 | 11.0 | 0.06 | 0.16 | 0.16 | 88 | 1015.6 |
| 20260904233317 | 77 | 159 | 3.0 | 11.0 | 0.06 | 0.16 | 0.16 | 88 | 1016.5 |
| 20260904233103 | 77 | 146 | 3.0 | 11.0 | 0.05 | 0.15 | 0.15 | 88 | 1015.3 |
| 20260904232556 | 77 | 193 | 5.0 | 10.0 | 0.04 | 0.14 | 0.14 | 88 | 1015.2 |
| 20260904232051 | 78 | 130 | 5.0 | 13.0 | 0.02 | 0.12 | 0.12 | 87 | 1015.3 |
| 20260904231822 | 79 | 137 | 6.0 | 13.0 | 0.02 | 0.12 | 0.12 | 86 | 1016.2 |
| 20260904231601 | 79 | 94 | 3.0 | 17.0 | 0.01 | 0.11 | 0.11 | 86 | 1015.2 |
| 20260904231043 | 79 | 109 | 6.0 | 17.0 | 0.00 | 0.10 | 0.10 | 83 | 1015.2 |
| 20260904230537 | 81 | 79 | 3.0 | 15.0 | 0.00 | 0.10 | 0.10 | 81 | 1015.1 |